Regional Weather Roundup
Issued by NWS Newport/Morehead, NC

Current Version | Previous Version | Text Only | Print | Product List | Glossary On
Versions: 1 2 3 4 5 6 7 8 9 10 11 12 13 14 15 16 17 18 19 20 21 22 23 24 25 26 27 28 29 30 31 32 33 34 35 36 37 38 39 40 41 42 43 44 45 46 47 48 49 50
000
ASUS42 KMHX 241322
RWRMHX
WEATHER ROUNDUP FOR EASTERN NORTH CAROLINA
NATIONAL WEATHER SERVICE NEWPORT/MOREHEAD CITY NC
900 AM EDT THU JUL 24 2014

NOTE: "FAIR" INDICATES FEW OR NO CLOUDS BELOW 12,000 FEET
WITH NO SIGNIFICANT WEATHER AND/OR OBSTRUCTIONS TO VISIBILITY

NCZ015>017-031-032-045>047-102-103-241400-
NORTH COAST

CITY           SKY/WX    TMP DP  RH WIND       PRES   REMARKS
EDENTON        PTSUNNY   80  76  86 NW8       29.90R
ELIZABETH CITY PTSUNNY   81  75  83 SW12G18   29.88R
KITTY HAWK     CLOUDY    81  75  82 W8        29.87R
MANTEO         NOT AVBL

$$

NCZ045>047-081-094-103-104-241400-
CENTRAL COAST

CITY           SKY/WX    TMP DP  RH WIND       PRES   REMARKS
FRISCO         SUNNY     83  75  77 W10       29.91R
SWANQUARTER      N/A     82 N/A N/A SW7G16    29.88R

$$

NCZ095-097-098-100-101-241400-
SOUTHERN COAST

CITY           SKY/WX    TMP DP  RH WIND       PRES   REMARKS
BEAUFORT       SUNNY     83  76  79 SW15      29.92S
CEDAR ISLAND     N/A     84 N/A N/A SW8G16    29.94S
JACKSONVILLE   SUNNY     82  76  81 W12       29.92S
NEWPORT        NOT AVBL
PINEY ISLAND   SUNNY     79  77  94 SW16      29.91S
WILMINGTON     MOSUNNY   83  76  79 W10       29.93F


$$

NCZ011>013-027>030-043-044-078>080-089-090>093-098-241400-
COASTAL PLAIN

CITY           SKY/WX    TMP DP  RH WIND       PRES   REMARKS
AHOSKIE        MOSUNNY   79  73  82 NW3       29.90R
CLINTON        MOSUNNY   80  76  89 SW9       29.93S
ELIZABETHTOWN  SUNNY     82  76  82 SW6       29.93S
GOLDSBORO      SUNNY     81  80  96 SW12      29.89S
GREENVILLE     SUNNY     81  75  83 W8G16     29.92S
HAVELOCK       NOT AVBL
KENANSVILLE    SUNNY     80  74  82 SW7       29.93S
KINSTON        MOSUNNY   81  75  83 SW9G16    29.92R
NEW BERN       SUNNY     84  75  74 SW8       29.92S
RICHLANDS      PTSUNNY   82  75  78 W10       29.93S
ROANOKE RAPIDS NOT AVBL
ROCKY MOUNT    PTSUNNY   80  74  81 W9        29.91R
WASHINGTON     MOSUNNY   79  75  88 SW7       29.91R
WHITEVILLE     SUNNY     82  75  80 SW6       29.94S

$$

AMZ130-135-150-152-154-156-158-170-250-252-270-ANZ085-086-088-633-658-670-241400-
MARINE OBSERVATIONS

STATION/POSITION TIME  TEMP    WIND        PRES    WAVE   SWELL
                       AIR SEA DIR/SP/G            HT/PER HT/PER
                 (UTC) (F)     (DEG/KT/KT) (MB)    (FT/S) (FT/S)
CHESAPEAKE LIGHT NOT AVBL
BUOY 44014       1300   78 78  240/ 12/ 16 1010.7    4/ 6   3/ 6
DUCK             1300   79 63  250/ 15/ 19 1011.0
2E DUCK          1300                        N/A     1/ 9
OREGON INLET     1300   80 83  240/ 15/ 17 1011.7
BUOY 44095       1300      78                N/A     3/ 7
20E OREGON INLET 1200          220/ 16/ 19   N/A
HATTERAS CG      1300   82 81  230/ 12/ 15 1013.1
DIAMOND BUOY     1300          VRB 17/ 21  1012.4    4/ 5
CAPE LOOKOUT     1300   82     250/ 14/ 18 1013.4
BEAUFORT LAB     1300   82 81  250/  8/ 13 1013.1
30 SE NEW RIVER  1300   81 80  240/ 14/ 16 1014.0    4/ 6   2/ 7
5 SE WRIGHTSVILL 1300   79 82  240/ 12/ 14   N/A
BUOY 41002       1222   80 82  220/ 17/ 23 1017.0    5/ 5
BUOY 41004       1300   82 82  220/ 14/ 16 1014.3    4/ 6   2/ 7

$$



USA.gov is the U.S. government's official web portal to all federal, state and local government web resources and services.